When you browse on this site, cookies collect data to enhance your experience and personalize the content and advertising you see.
Visit our Privacy Policy to learn more. By continuing to use the site, you agree to this use of cookies and data.
  • In Hungary
  • List of Countries
  • For 7 days
  • Water Temperature
  • Weather Map
  • News
  • Weather Widgets
  • user-avatar
    Login

    Hourly Weather Karelskiy

    Today, 23 August, Friday

    Time Temperature Precipitation Wind Pressure Humidity
    00:00 +11°C° 0 mm 3 mps 754 mmHg 89%
    01:00 +10°C° 0 mm 3 mps 754 mmHg 90%
    02:00 +10°C° 0 mm 3 mps 754 mmHg 92%
    03:00 +10°C° 0 mm 3 mps 755 mmHg 92%
    04:00 +10°C° 0 mm 3 mps 755 mmHg 92%
    05:00 +9°C° 0 mm 2 mps 755 mmHg 93%
    06:00 +10°C° 0 mm 2 mps 755 mmHg 89%
    07:00 +13°C° 0 mm 2 mps 755 mmHg 85%
    08:00 +14°C° 0 mm 2 mps 756 mmHg 81%
    09:00 +15°C° 0 mm 1 mps 756 mmHg 74%
    10:00 +16°C° 0 mm 1 mps 756 mmHg 68%
    11:00 +18°C° 0 mm 1 mps 756 mmHg 62%
    12:00 +18°C° 0.1 mm 1 mps 756 mmHg 63%
    13:00 +18°C° 0.1 mm 1 mps 756 mmHg 64%
    14:00 +18°C° 0.1 mm 1 mps 756 mmHg 65%
    15:00 +18°C° 0.2 mm 1 mps 755 mmHg 69%
    16:00 +16°C° 0.2 mm 1 mps 755 mmHg 73%
    17:00 +16°C° 0.2 mm 1 mps 755 mmHg 77%
    18:00 +15°C° 0.1 mm 1 mps 755 mmHg 79%
    19:00 +13°C° 0.1 mm 2 mps 755 mmHg 82%
    20:00 +12°C° 0.1 mm 2 mps 755 mmHg 84%
    21:00 +12°C° 0 mm 2 mps 755 mmHg 87%
    22:00 +12°C° 0 mm 1 mps 755 mmHg 89%
    23:00 +11°C° 0 mm 1 mps 754 mmHg 91%

    Tomorrow, 24 August, Saturday

    Time Temperature Precipitation Wind Pressure Humidity
    00:00 +12°C° 0 mm 1 mps 754 mmHg 91%
    01:00 +12°C° 0 mm 1 mps 754 mmHg 90%
    02:00 +12°C° 0 mm 1 mps 754 mmHg 90%
    03:00 +12°C° 0 mm 2 mps 754 mmHg 91%
    04:00 +10°C° 0 mm 2 mps 754 mmHg 92%
    05:00 +10°C° 0 mm 3 mps 754 mmHg 92%
    06:00 +11°C° 0 mm 3 mps 754 mmHg 92%
    07:00 +11°C° 0 mm 3 mps 755 mmHg 91%
    08:00 +11°C° 0 mm 3 mps 755 mmHg 91%
    09:00 +11°C° 0.1 mm 3 mps 755 mmHg 89%
    10:00 +12°C° 0.1 mm 3 mps 756 mmHg 86%
    11:00 +13°C° 0.1 mm 3 mps 756 mmHg 84%
    12:00 +14°C° 0.2 mm 2 mps 756 mmHg 83%
    13:00 +14°C° 0.2 mm 2 mps 757 mmHg 83%
    14:00 +14°C° 0.2 mm 2 mps 757 mmHg 82%
    15:00 +14°C° 0.1 mm 1 mps 757 mmHg 81%
    16:00 +14°C° 0.1 mm 1 mps 758 mmHg 80%
    17:00 +14°C° 0.1 mm 1 mps 758 mmHg 80%
    18:00 +13°C° 0 mm 1 mps 758 mmHg 84%
    19:00 +12°C° 0 mm 1 mps 759 mmHg 89%
    20:00 +9°C° 0 mm 0 mps 759 mmHg 94%
    21:00 +9°C° 0 mm 0 mps 760 mmHg 94%
    22:00 +9°C° 0 mm 0 mps 760 mmHg 95%
    23:00 +9°C° 0 mm 1 mps 760 mmHg 95%

    Day after tomorrow, 25 August, Sunday

    Time Temperature Precipitation Wind Pressure Humidity
    00:00 +8°C° 0 mm 0 mps 761 mmHg 95%
    01:00 +8°C° 0 mm 0 mps 761 mmHg 95%
    02:00 +8°C° 0 mm 0 mps 761 mmHg 95%
    03:00 +8°C° 0 mm 0 mps 761 mmHg 96%
    04:00 +9°C° 0 mm 1 mps 761 mmHg 96%
    05:00 +9°C° 0 mm 1 mps 762 mmHg 96%
    06:00 +10°C° 0 mm 1 mps 762 mmHg 91%
    07:00 +12°C° 0 mm 1 mps 762 mmHg 87%
    08:00 +12°C° 0 mm 0 mps 762 mmHg 83%
    09:00 +14°C° 0 mm 1 mps 762 mmHg 80%
    10:00 +14°C° 0 mm 1 mps 762 mmHg 78%
    11:00 +15°C° 0 mm 1 mps 761 mmHg 75%
    12:00 +15°C° 0.1 mm 1 mps 761 mmHg 70%
    13:00 +16°C° 0.1 mm 1 mps 761 mmHg 65%
    14:00 +17°C° 0.1 mm 2 mps 760 mmHg 60%
    15:00 +17°C° 0 mm 2 mps 760 mmHg 63%
    16:00 +16°C° 0 mm 2 mps 760 mmHg 65%
    17:00 +16°C° 0 mm 2 mps 759 mmHg 67%
    18:00 +14°C° 0.1 mm 3 mps 759 mmHg 71%
    19:00 +13°C° 0.1 mm 4 mps 758 mmHg 75%
    20:00 +13°C° 0.1 mm 4 mps 757 mmHg 79%
    21:00 +12°C° 0.8 mm 5 mps 757 mmHg 84%
    22:00 +12°C° 0.8 mm 5 mps 756 mmHg 88%
    23:00 +11°C° 0.8 mm 6 mps 756 mmHg 93%

    26 August, Monday

    Time Temperature Precipitation Wind Pressure Humidity
    00:00 +12°C° 1.1 mm 5 mps 755 mmHg 93%
    01:00 +12°C° 1.1 mm 5 mps 754 mmHg 94%
    02:00 +12°C° 1.1 mm 5 mps 753 mmHg 95%
    03:00 +12°C° 0.8 mm 5 mps 753 mmHg 94%
    04:00 +12°C° 0.8 mm 5 mps 752 mmHg 94%
    05:00 +12°C° 0.8 mm 5 mps 752 mmHg 93%
    06:00 +13°C° 0 mm 5 mps 752 mmHg 90%
    07:00 +14°C° 0 mm 5 mps 751 mmHg 87%
    08:00 +14°C° 0 mm 5 mps 751 mmHg 84%
    09:00 +15°C° 0.1 mm 5 mps 751 mmHg 80%
    10:00 +16°C° 0.1 mm 5 mps 751 mmHg 76%
    11:00 +16°C° 0.1 mm 6 mps 751 mmHg 71%
    12:00 +16°C° 0.3 mm 6 mps 751 mmHg 70%
    13:00 +16°C° 0.3 mm 6 mps 751 mmHg 69%
    14:00 +16°C° 0.3 mm 7 mps 752 mmHg 68%
    15:00 +15°C° 0.1 mm 6 mps 752 mmHg 69%
    16:00 +15°C° 0.1 mm 5 mps 752 mmHg 71%
    17:00 +14°C° 0.1 mm 5 mps 753 mmHg 73%
    18:00 +14°C° 0 mm 5 mps 753 mmHg 76%
    19:00 +13°C° 0 mm 4 mps 753 mmHg 79%
    20:00 +12°C° 0 mm 4 mps 754 mmHg 82%
    21:00 +12°C° 0 mm 4 mps 754 mmHg 83%
    22:00 +11°C° 0 mm 4 mps 755 mmHg 83%
    23:00 +11°C° 0 mm 4 mps 755 mmHg 84%

    27 August, Tuesday

    Time Temperature Precipitation Wind Pressure Humidity
    00:00 +10°C° 0 mm 4 mps 756 mmHg 86%
    01:00 +10°C° 0 mm 4 mps 756 mmHg 88%
    02:00 +9°C° 0 mm 3 mps 757 mmHg 90%
    03:00 +9°C° 0 mm 3 mps 757 mmHg 91%
    04:00 +9°C° 0 mm 3 mps 758 mmHg 93%
    05:00 +8°C° 0 mm 2 mps 759 mmHg 94%
    06:00 +9°C° 0 mm 2 mps 759 mmHg 88%
    07:00 +11°C° 0 mm 1 mps 759 mmHg 81%
    08:00 +12°C° 0 mm 1 mps 760 mmHg 75%
    09:00 +13°C° 0 mm 1 mps 760 mmHg 72%
    10:00 +13°C° 0 mm 1 mps 760 mmHg 70%
    11:00 +14°C° 0 mm 1 mps 760 mmHg 67%
    12:00 +13°C° 0.1 mm 1 mps 760 mmHg 72%
    13:00 +13°C° 0.1 mm 1 mps 760 mmHg 77%
    14:00 +12°C° 0.1 mm 1 mps 760 mmHg 82%
    15:00 +12°C° 0.2 mm 2 mps 760 mmHg 85%
    16:00 +12°C° 0.2 mm 2 mps 760 mmHg 87%
    17:00 +11°C° 0.2 mm 3 mps 760 mmHg 89%
    18:00 +10°C° 0.1 mm 3 mps 760 mmHg 90%
    19:00 +10°C° 0.1 mm 3 mps 760 mmHg 91%
    20:00 +10°C° 0.1 mm 2 mps 760 mmHg 92%
    21:00 +10°C° 0 mm 2 mps 760 mmHg 92%
    22:00 +10°C° 0 mm 2 mps 760 mmHg 92%
    23:00 +9°C° 0 mm 2 mps 760 mmHg 93%

    28 August, Wednesday

    Time Temperature Precipitation Wind Pressure Humidity
    00:00 +9°C° 0.1 mm 2 mps 760 mmHg 93%
    01:00 +10°C° 0.1 mm 2 mps 760 mmHg 94%
    02:00 +10°C° 0.1 mm 2 mps 760 mmHg 94%
    03:00 +10°C° 0.1 mm 2 mps 760 mmHg 95%
    04:00 +10°C° 0.1 mm 2 mps 760 mmHg 95%
    05:00 +10°C° 0.1 mm 2 mps 760 mmHg 95%
    06:00 +13°C° 0 mm 1 mps 760 mmHg 92%
    07:00 +14°C° 0 mm 1 mps 760 mmHg 88%
    08:00 +15°C° 0 mm 1 mps 759 mmHg 85%
    09:00 +16°C° 0 mm 1 mps 759 mmHg 79%
    10:00 +19°C° 0 mm 1 mps 759 mmHg 73%
    11:00 +21°C° 0 mm 1 mps 759 mmHg 67%
    12:00 +21°C° 0 mm 1 mps 759 mmHg 66%
    13:00 +21°C° 0 mm 2 mps 759 mmHg 64%
    14:00 +21°C° 0 mm 2 mps 758 mmHg 63%
    15:00 +21°C° 0 mm 2 mps 758 mmHg 66%
    16:00 +20°C° 0 mm 2 mps 758 mmHg 69%
    17:00 +19°C° 0 mm 2 mps 758 mmHg 73%
    18:00 +18°C° 0 mm 2 mps 757 mmHg 78%
    19:00 +16°C° 0 mm 2 mps 757 mmHg 84%
    20:00 +15°C° 0 mm 2 mps 757 mmHg 90%
    21:00 +15°C° 0 mm 2 mps 757 mmHg 91%
    22:00 +14°C° 0 mm 2 mps 757 mmHg 93%
    23:00 +14°C° 0 mm 1 mps 757 mmHg 94%
    Show more